Regional Weather Roundup
Issued by NWS

Home | Current Version | Previous Version | Text Only | Print | Product List | Glossary On
Versions: 1 2 3 4 5 6 7 8 9 10 11 12 13 14 15 16 17 18 19 20 21 22 23 24 25 26 27 28 29 30 31 32 33 34 35 36 37 38 39 40 41 42 43 44 45 46 47 48 49 50
000
ASUS43 KFSD 010310
RWRSD

WEATHER ROUNDUP FOR SOUTH DAKOTA
NATIONAL WEATHER SERVICE SIOUX FALLS SD
1000 PM CDT FRI JUL 31 2015

NOTE: "FAIR" INDICATES FEW OR NO CLOUDS BELOW 12,000 FEET WITH NO
SIGNIFICANT WEATHER AND/OR OBSTRUCTIONS TO VISIBILITY.


SDZ001>005-009-010-012>017-010400-
NORTHWEST AND NORTH CENTRAL SOUTH DAKOTA

CITY           SKY/WX    TMP DP  RH WIND       PRES   REMARKS
BUFFALO          N/A     74  47  38 SE13      30.01S
FAITH            N/A     77  43  29 SE13      30.07S
MOBRIDGE       CLEAR     78  55  44 E9        30.01S
$$

SDZ012>016-024>037-041>051-057-063-072>074-010400-
SOUTHWEST AND SOUTH CENTRAL SOUTH DAKOTA

CITY           SKY/WX    TMP DP  RH WIND       PRES   REMARKS
RAPID CTY ARPT CLEAR     72  53  51 E9        30.10S
PIERRE         CLEAR     73  56  54 NE5       30.04R
CUSTER         CLEAR     67  47  48 E6        30.26S
ELLSWORTH AFB  CLEAR     75  54  47 E5        30.10S
PHILIP         CLEAR     70  55  59 E7        30.06R
PINE RIDGE     CLEAR     71  54  54 E8        30.12R
SPEARFISH      FAIR      66  54  63 E10       30.15S
WINNER         FAIR      75  61  61 SE9       30.08R
$$

SDZ004>011-016>023-039-040-010400-
NORTHEAST SOUTH DAKOTA

CITY           SKY/WX    TMP DP  RH WIND       PRES   REMARKS
ABERDEEN       CLEAR     71  58  63 NW3       30.02R
WATERTOWN      CLEAR     70  63  78 S6        30.03R
BROOKINGS      CLEAR     70  59  68 S8        30.07R
SISSETON         N/A     68  64  87 SW5       29.98R
$$

SDZ017-020-022-023-036>040-048>070-010400-
SOUTHEAST SOUTH DAKOTA

CITY           SKY/WX    TMP DP  RH WIND       PRES   REMARKS
SIOUX FALLS    CLEAR     72  61  68 SW3       30.06S
HURON          CLEAR     75  56  51 S6        30.03R
CHAMBERLAIN    CLEAR     71  63  76 SE3       30.07R
MITCHELL       CLEAR     77  60  55 S3        30.05S
YANKTON        CLEAR     73  66  78 NE3       30.05R
$$

ABBREVIATIONS USED IN REMARKS
   TC - TEMPERATURE IN CELSIUS
  WCI - WIND CHILL INDEX
   HX - HEAT INDEX
  VSB - VISIBILITY



USA.gov is the U.S. government's official web portal to all federal, state and local government web resources and services.